Regional Weather Roundup
Issued by NWS

Home | Current Version | Previous Version | Text Only | Print | Product List | Glossary Off
Versions: 1 2 3 4 5 6 7 8 9 10 11 12 13 14 15 16 17 18 19 20 21 22 23 24 25 26 27 28 29 30 31 32 33 34 35 36 37 38 39 40 41 42 43 44 45 46 47 48 49 50

000
ASUS43 KDTX 220310
RWRMI
MICHIGAN HOURLY REGIONAL WEATHER ROUNDUP
NATIONAL WEATHER SERVICE DETROIT/PONTIAC MI
1100 PM EDT SAT APR 21 2018

NOTE: "FAIR" INDICATES FEW OR NO CLOUDS BELOW 12,000 FEET WITH NO
SIGNIFICANT WEATHER AND/OR OBSTRUCTION TO VISIBILITY.

MIZ047>049-052>055-059>063-066>070-074>076-081>083-220400-
SOUTHEAST LOWER MICHIGAN

CITY           SKY/WX    TMP DP  RH WIND       PRES   REMARKS
ADRIAN         FAIR      45  21  38 SE3       30.41S
ALMA           FAIR      39  35  86 W3        30.39S
ANN ARBOR      FAIR      41  28  60 CALM      30.41R
BAD AXE        FAIR      42  18  38 CALM      30.41S
CARO           FAIR      42  27  55 SE3       30.40R
DETROIT CITY   FAIR      45  26  47 CALM      30.42S
DETROIT        MOCLDY    43  22  43 CALM      30.42S
FLINT          FAIR      44  29  55 S8        30.40R
GROSSE ILE     FAIR      40  33  77 CALM      30.41S
HILLSDALE      FAIR      45  27  49 SE5       30.38S
HOWELL         FAIR      44  29  55 SE5       30.40R

CITY           SKY/WX    TMP DP  RH WIND       PRES   REMARKS
JACKSON        FAIR      46  27  47 SE8       30.39R
LAMBERTVILLE   FAIR      44  26  49 E3        30.40S
LANSING        FAIR      45  29  53 CALM      30.39S
LAPEER         FAIR      40  26  56 CALM      30.41R
MASON          FAIR      42  30  63 SE5       30.39S
MONROE         FAIR      38  22  53 CALM      30.41S
MT. CLEMENS    MOCLDY    41  31  67 SW3       30.40R
PONTIAC        CLOUDY    46  27  47 CALM      30.40S
PORT HOPE        N/A     38  25  59 S3        30.39S
PORT HURON     FAIR      37  28  70 CALM      30.42S
TRI CITIES     FAIR      46  31  55 SE3       30.39S
MIDLAND        FAIR      39  34  81 CALM      30.39R
TROY           FAIR      47  23  38 CALM      30.43S
SAGINAW HB     FAIR      45  28  53 SE3       30.39S
$$
MIZ043>046-050>051-056>058-064>065-071>073-077>080-220400-
SOUTHWEST LOWER MICHIGAN

CITY           SKY/WX    TMP DP  RH WIND       PRES   REMARKS
BATTLE CREEK   FAIR      50  25  37 SE3       30.39R
BENTON HARBOR  FAIR      44  28  53 CALM      30.39R
BIG RAPIDS     FAIR      40  19  44 CALM      30.38S
COLDWATER      CLOUDY    50  27  41 SE3       30.38S
FREMONT        FAIR      40  18  41 CALM      30.39S
HOLLAND        FAIR      41  29  62 CALM      30.39S
GRAND RAPIDS   FAIR      46  19  34 NW5       30.39R
IONIA          FAIR      46  27  49 CALM      30.38R
KALAMAZOO      CLOUDY    51  26  37 CALM      30.39R
LUDINGTON      FAIR      33  24  70 CALM      30.40R
MARSHALL       FAIR      47  23  39 E3        30.38S
MOUNT PLEASANT FAIR      44  36  73 CALM      30.38S
MUSKEGON       FAIR      37  21  52 CALM      30.40R
SOUTH HAVEN    CLOUDY    45  29  53 CALM      30.39R
$$
MIZ016>042-220400-
NORTHERN LOWER MICHIGAN

CITY           SKY/WX    TMP DP  RH WIND       PRES   REMARKS
ALPENA         FAIR      32  27  81 CALM      30.41S
BEAVER ISLAND  FAIR      32  26  77 CALM      30.40S
BELLAIRE       FAIR      32  25  77 CALM      30.40S
CADILLAC       FAIR      36  19  48 CALM      30.37S
CHARLEVOIX     FAIR      36  24  62 NW5       30.43R WCI  32
FRANKFORT      FAIR      34  24  66 CALM      30.40R
GAYLORD        FAIR      38  20  48 CALM      30.39R
GRAYLING       FAIR      33  22  65 CALM      30.39R
HARBOR SPRINGS FAIR      37  17  43 CALM      30.40S
HOUGHTON LAKE  FAIR      35  23  61 CALM      30.38R
MANISTEE       FAIR      32  25  75 CALM      30.40R
OSCODA         FAIR      31  21  67 CALM      30.41R
PELLSTON       FAIR      34  21  59 CALM      30.41R
ROGERS CITY    FAIR      34  23  65 SW3       30.41S
TRAVERSE CITY  FAIR      35  27  72 CALM      30.39R
$$
MIZ007>008-015-220400-
EASTERN UPPER MICHIGAN

CITY           SKY/WX    TMP DP  RH WIND       PRES   REMARKS
KINROSS        FAIR      42  16  34 SW6       30.39S
MACKINAC ISLAN FAIR      36  21  55 SW3       30.40S
NEWBERRY       FAIR      37  22  56 CALM      30.38S
S. S. MARIE    FAIR      43  21  41 W6        30.38R
MUNISING         N/A     32  25  75 S6        30.38R WCI  26
$$
MIZ004>006-011>014-085-220400-
CENTRAL UPPER MICHIGAN

CITY           SKY/WX    TMP DP  RH WIND       PRES   REMARKS
MANISTIQUE     FAIR      30  29  94 S5        30.39R WCI  25
ESCANABA       FAIR      36  28  73 CALM      30.38R
MENOMINEE      FAIR      44  21  40 SW6       30.38R
SAWYER-GWINN   FAIR      33  20  59 CALM      30.37S
$$
MIZ001>003-009>011-084-220400-
WESTERN UPPER MICHIGAN

CITY           SKY/WX    TMP DP  RH WIND       PRES   REMARKS
IRON MOUNTAIN  FAIR      47  22  37 E3        30.33R
HOUGHTON       FAIR      37  17  44 CALM      30.36R
COPPER HARBOR    N/A     38  16  40 VRB5      30.35F WCI  34
IRONWOOD       FAIR      35  23  61 CALM      30.37R
$$

ABBREVIATIONS USED IN REMARKS
   TC - TEMPERATURE IN CELSIUS
  WCI - WIND CHILL INDEX
   HX - HEAT INDEX
  VSB - VISIBILITY





USA.gov is the U.S. government's official web portal to all federal, state and local government web resources and services.